Regional Weather Roundup
Issued by NWS

Home | Current Version | Previous Version | Text Only | Print | Product List | Glossary Off
Versions: 1 2 3 4 5 6 7 8 9 10 11 12 13 14 15 16 17 18 19 20 21 22 23 24 25 26 27 28 29 30 31 32 33 34 35 36 37 38 39 40 41 42 43 44 45 46 47 48 49 50

000
ASUS43 KMPX 290710
RWRMN
WEATHER ROUNDUP FOR MINNESOTA
NATIONAL WEATHER SERVICE TWIN CITIES/CHANHASSEN MN
200 AM CDT MON AUG 29 2016


NOTE: "FAIR" INDICATES FEW OR NO CLOUDS BELOW 12,000 FEET WITH NO
SIGNIFICANT WEATHER AND/OR OBSTRUCTIONS TO VISIBILITY. N/A MEANS
CURRENT SKY AND/OR WEATHER CONDITIONS ARE NOT AVAILABLE.

MNZ060>063-068>070-290800-
   Twin Cities Metro

CITY           SKY/WX    TMP DP  RH WIND       PRES   REMARKS
TWIN CITIES    PTCLDY    74  69  85 S10       30.12S
ST PAUL        CLEAR     71  69  93 SE10      30.12F
CRYSTAL        CLEAR     73  68  84 S7        30.10S
BLAINE         CLEAR     73  72  94 S8        30.11F
LAKEVILLE      CLEAR     70  70 100 S6        30.13S
EDEN PRAIRIE   CLEAR     73  69  87 S7        30.11S
LAKEVILLE      CLEAR     70  70 100 S6        30.13S
SOUTH ST PAUL  CLEAR     72  70  94 S3        30.12S
LAKE ELMO      FAIR      70  68  94 S8        30.13F
$$
MNZ001>005-007-008-013>017-022>024-027-028-290800-
   Northwest Minnesota

CITY           SKY/WX    TMP DP  RH WIND       PRES   REMARKS
BEMIDJI        TSTM      68  67  96 E13       30.02F
HALLOCK        CLOUDY    70  66  88 S8        29.96F THUNDER
ROSEAU         CLOUDY    66  61  82 SE6       30.01F
WARROAD        CLOUDY    64  61  88 E5        30.02F
THIEF RVR FALL CLOUDY    68  61  78 S6        30.02R
CROOKSTON      CLOUDY    68  63  83 SE8       30.00R
FOSSTON        TSTM      63  61  94 S10       30.02S
DETROIT LAKES  CLOUDY    66  64  94 S12       30.09R THUNDER
MOORHEAD       CLOUDY    72  66  83 SE7       30.01S
PARK RAPIDS    LGT RAIN  64  60  87 SW7       30.07F
MAHNOMEN       FAIR      65  62  89 SE7       30.03R
$$
MNZ006-009>011-018-025>026-290800-
   North Central Minnesota

CITY           SKY/WX    TMP DP  RH WIND       PRES   REMARKS
BAUDETTE       CLOUDY    63  61  93 SE6       30.02F
FLAG ISLAND    CLOUDY    64  63  94 S3        30.01F THUNDER
INTL FALLS     TSTM      62  60  93 VRB7      30.06F
WASKISH        CLOUDY    63  61  94 E6        30.02F
BIG FORK       CLOUDY    63  61  94 SW3       30.13R
LONGVILLE      CLOUDY    72  68  88 W15       30.10R
GRAND RAPIDS   LGT RAIN  68  65  90 SE10      30.11F
ORR            LGT RAIN  63  59  88 CALM      30.12F
COOK           RAIN      63  63 100 CALM      30.16R
WALKER         TSTM      64  63  97 S7        30.05R
$$
MNZ012-019>021-037-290800-
   Northeast Minnesota

CITY           SKY/WX    TMP DP  RH WIND       PRES   REMARKS
DULUTH         CLOUDY    64  63  96 SE9       30.13F
ELY            TSTM      63  61  94 CALM      30.15R
HIBBING        TSTM      62  60  93 N18G28    30.14R FOG
EVELETH        CLOUDY    65  62  91 W8        30.13F
DULUTH HARBOR  CLOUDY    66  64  94 NE10      30.14S
TWO HARBORS    CLOUDY    64  61  88 CALM      30.12F
SILVER BAY     CLOUDY    63  63 100 CALM      30.13F FOG
GRAND MARAIS     N/A     65  61  87 NE7       30.16R
G MARAIS ARPRT CLOUDY    59  55  88 E5        30.20R
$$
MNZ029>031-032-039>041-046>048-054>057-064-290800-
   West Central Minnesota

CITY           SKY/WX    TMP DP  RH WIND       PRES   REMARKS
FERGUS FALLS   CLOUDY    75  73  94 S10       30.03S
WHEATON        PTCLDY    75  72  88 S9        30.03S
MORRIS         PTCLDY    73  72  94 S9        30.04S
ALEXANDRIA     CLOUDY    74  70  87 S14       30.08R
ELBOW LAKE     FAIR      72  71  97 S12       30.04S
WADENA         TSTM      66  63  88 N12G33    30.13R
GLENWOOD       CLEAR     72  70  94 S13       30.08F
APPLETON       CLEAR     73  70  88 S6        30.05S
BENSON         CLEAR     72  66  83 S9        30.06S
ORTONVILLE     CLEAR     72  70  94 S7        30.04S
MADISON        CLEAR     72  70  94 S5        30.06R
WILLMAR        FAIR      72  70  94 SE6       30.11R
$$
MNZ033>034-036-042>043-049>051-058-059-290800-
   Central Minnesota

CITY           SKY/WX    TMP DP  RH WIND       PRES   REMARKS
ST CLOUD       CLEAR     71  70  96 S8        30.09S
SAUK CENTRE    FAIR      70  68  94 S8        30.08S
PAYNESVILLE    CLEAR     72  72 100 S10       30.09F
AITKIN         CLOUDY    73  66  78 SE9       30.09S
PINE RIVER     CLOUDY    72  66  83 NW17G24   30.17R THUNDER
BRAINERD       CLOUDY    71  68  90 S8        30.09R
STAPLES        CLOUDY    72  66  83 S5        30.09R
LONG PRAIRIE   FAIR      70  68  94 SE7       30.09R
LITTLE FALLS   CLOUDY    70  64  83 SE6       30.09R
LITCHFIELD     CLEAR     73  70  88 CALM      30.11S
BUFFALO        CLEAR     72  68  87 S3        30.12R
MAPLE LAKE     CLEAR     72  70  95 S3        30.11R
HUTCHINSON     CLOUDY    71  70  97 SE3       30.12S
$$
MNZ037-044-045-052-053-290800-
   East Central Minnesota

CITY           SKY/WX    TMP DP  RH WIND       PRES   REMARKS
PRINCETON      CLEAR     72  70  94 SE6       30.11R
MORA           CLOUDY    68  64  88 CALM      30.14R
CAMBRIDGE      CLEAR     73  66  78 SE6       30.10R
RUSH CITY      CLOUDY    68  67  94 SE5       30.13R
MOOSE LAKE     CLOUDY    68  64  88 CALM      30.11F
HINCKLEY       FAIR      66  66 100 CALM      30.13R
CLOQUET        CLOUDY    63  61  94 SE6       30.13F FOG
MCGREGOR       CLOUDY    70  66  88 S8        30.11F
$$
MNZ071>073-080-081-089-090-097-098-290800-
   Southwest Minnesota

CITY           SKY/WX    TMP DP  RH WIND       PRES   REMARKS
MONTEVIDEO     CLEAR     72  72 100 S5        30.09R
GRANITE FALLS  CLEAR     72  69  92 S7        30.10R
CANBY          CLEAR     75  67  76 S8        30.07S
MARSHALL       CLEAR     72  67  84 S12       30.09R
REDWOOD FALLS  CLEAR     69  67  93 S9        30.10R
OLIVIA         CLEAR     70  66  88 S6        30.09S
PIPESTONE      CLEAR     70  64  83 S7        30.13R
WINDOM         CLEAR     68  63  83 S8        30.13F
WORTHINGTON    CLEAR     66  63  90 S7        30.15R
JACKSON          N/A     66  61  82 S6        30.15S
TRACY          CLEAR     72  66  82 S10       30.10F
SLAYTON        CLEAR     66  64  94 S10       30.13F
$$
MNZ065>067-074>077-082>085-091>093-290800-
   South Central Minnesota

CITY           SKY/WX    TMP DP  RH WIND       PRES   REMARKS
MANKATO        CLEAR     72  66  83 SE5       30.13S
NEW ULM          N/A     70  68  94 S5        30.12S
ST JAMES       CLEAR     63  61  94 S6        30.13F
FAIRMONT       CLEAR     66  64  93 SW5       30.14F
GLENCOE        CLEAR     73  73  98 CALM      30.11S
FARIBAULT      CLEAR     72  70  94 S6        30.14F
OWATONNA       CLEAR     72  70  94 SE6       30.15S
WASECA         CLEAR     68  64  88 E5        30.16S FOG
ALBERT LEA     CLEAR     72  72 100 S7        30.15F
$$
MNZ078>079-086>088-094>096-290800-
   Southeast Minnesota

CITY           SKY/WX    TMP DP  RH WIND       PRES   REMARKS
ROCHESTER      CLEAR     68  67  96 S6        30.18F
RED WING       CLEAR     73  70  88 E6        30.13F
STANTON        CLEAR     73  68  83 S8        30.12F
DODGE CENTER   CLEAR     66  66 100 SE7       30.16F FOG
WINONA         PTCLDY    70  68  94 SE3       30.17S
AUSTIN         PTCLDY    70  68  94 CALM      30.15F FOG
PRESTON        CLEAR     68  65  90 S5        30.18F
$$
ABBREVIATIONS USED IN REMARKS
   TC - TEMPERATURES IN CELSIUS
  WCI - WIND CHILL INDEX
   HX - HEAT INDEX
  VSB - VISIBILITY
$$




USA.gov is the U.S. government's official web portal to all federal, state and local government web resources and services.